Kodiak, AK

7:36 AM AKDT on September 19, 2017 (GMT -0800)
Kodiak

Weather History for PADQ - December, 2013

Change the Weather History Date:

Tuesday, December 17, 2013

  Actual Average Record
Temperature  
Mean Temperature 20 °F 31 °F  
Max Temperature 29 °F 36 °F 48 °F (1984)
Min Temperature 11 °F 26 °F -2 °F (1997)
Degree Days  
Heating Degree Days 45 34  
Month to date heating degree days 590 573  
Since 1 July heating degree days 2997 3368  
Cooling Degree Days 0 0  
Month to date cooling degree days 0 0  
Year to date cooling degree days 6 1  
Moisture  
Dew Point 13 °F    
Average Humidity 0    
Maximum Humidity 0    
Minimum Humidity 0    
Precipitation  
Precipitation T in 0.29 in 1.95 in (1996)
Month to date precipitation 0.44 4.85  
Year to date precipitation 61.45 74.12  
Snow  
Snow T in 0.50 in 5.40 in (2015)
Month to date snowfall T 8.1  
Since 1 July snowfall 7.3 15.6  
Snow Depth T in    
Sea Level Pressure  
Sea Level Pressure 30.23 in    
Wind  
Wind Speed 8 mph (West)    
Max Wind Speed 9 mph    
Max Gust Speed 13 mph    
Visibility 10 miles    
Events Snow    
T = Trace of Precipitation, MM = Missing Value Source: NWS Daily Summary

Daily Weather History Graph

Daily Weather History Graph

Search for Another Location

Airport or City:

Trip Planner

Search our weather history database for the weather conditions in past years. The results will help you decide how hot, cold, wet, or windy it might be!

Date:

Astronomy

Dec. 17, 2013 Rise Set
Actual Time 9:50 AM AKST 4:22 PM AKST
Civil Twilight 8:58 AM AKST 5:13 PM AKST
Nautical Twilight 8:06 AM AKST 6:05 PM AKST
Astronomical Twilight 7:18 AM AKST 6:54 PM AKST
Moon 5:27 PM AKST (12/17) 9:38 AM AKST (12/17)
Length of Visible Light 8h 14m
Length of Day
6h 32m
Full, 100% of the Moon is Illuminated
Dec 17
Full
Dec 25
Last Quarter
Jan 1
New
Jan 7
First Quarter
Jan 15
Full

Hourly Weather History & Observations

Time (AKST) Temp. Windchill Dew Point Humidity Pressure Visibility Wind Dir Wind Speed Gust Speed Precip Events Conditions
12:53 AM 21.9 °F 9.2 °F 12.0 °F 66% 30.11 in 10.0 mi West 13.8 mph - 0.00 in   Scattered Clouds
1:53 AM 21.9 °F 11.0 °F 12.9 °F 68% 30.12 in 10.0 mi WSW 10.4 mph 18.4 mph N/A   Scattered Clouds
2:53 AM 23.0 °F 15.8 °F 12.9 °F 65% 30.13 in 10.0 mi WSW 5.8 mph - 0.00 in Snow Light Snow
3:53 AM 21.9 °F 15.7 °F 14.0 °F 72% 30.13 in 9.0 mi Variable 4.6 mph - 0.00 in Snow Light Snow
4:53 AM 23.0 °F 14.7 °F 15.1 °F 72% 30.13 in 9.0 mi West 6.9 mph - 0.00 in Snow Light Snow
5:22 AM 23.0 °F 12.4 °F 15.8 °F 74% 30.13 in 10.0 mi WNW 10.4 mph - 0.00 in   Clear
5:53 AM 23.0 °F 10.6 °F 15.1 °F 72% 30.14 in 10.0 mi WNW 13.8 mph - 0.00 in   Partly Cloudy
6:53 AM 23.0 °F 11.1 °F 15.1 °F 72% 30.15 in 10.0 mi West 12.7 mph - N/A   Partly Cloudy
7:53 AM 24.1 °F 17.0 °F 15.1 °F 69% 30.16 in 10.0 mi West 5.8 mph - N/A   Clear
8:53 AM 25.0 °F 12.6 °F 15.1 °F 66% 30.18 in 10.0 mi WSW 15.0 mph 23.0 mph N/A   Partly Cloudy
9:53 AM 26.1 °F 17.6 °F 15.1 °F 63% 30.21 in 10.0 mi WNW 8.1 mph - N/A   Partly Cloudy
10:53 AM 26.1 °F 16.2 °F 15.1 °F 63% 30.22 in 10.0 mi West 10.4 mph - N/A   Partly Cloudy
11:53 AM 27.0 °F 18.0 °F 15.1 °F 61% 30.24 in 10.0 mi WNW 9.2 mph - N/A   Scattered Clouds
12:53 PM 28.0 °F 19.3 °F 14.0 °F 56% 30.25 in 10.0 mi West 9.2 mph - N/A   Partly Cloudy
1:53 PM 28.9 °F 21.1 °F 15.1 °F 56% 30.25 in 10.0 mi WNW 8.1 mph - N/A   Partly Cloudy
2:53 PM 28.0 °F 24.2 °F 14.0 °F 56% 30.27 in 10.0 mi SW 3.5 mph - N/A   Partly Cloudy
3:53 PM 27.0 °F 23.0 °F 12.9 °F 56% 30.27 in 10.0 mi West 3.5 mph - N/A   Clear
4:53 PM 18.0 °F 12.7 °F 12.0 °F 78% 30.27 in 10.0 mi West 3.5 mph - N/A   Partly Cloudy
5:53 PM 16.0 °F 7.4 °F 10.0 °F 77% 30.30 in 10.0 mi West 5.8 mph - N/A   Clear
6:53 PM 16.0 °F 6.3 °F 10.0 °F 77% 30.32 in 10.0 mi West 6.9 mph - N/A   Clear
7:53 PM 16.0 °F 5.3 °F 10.0 °F 77% 30.33 in 10.0 mi West 8.1 mph - N/A   Clear
8:53 PM 14.0 °F 2.0 °F 9.0 °F 80% 30.33 in 10.0 mi West 9.2 mph - N/A   Clear
9:53 PM 12.0 °F 2.7 °F 8.1 °F 84% 30.34 in 10.0 mi West 5.8 mph - N/A   Clear
10:53 PM 12.9 °F 1.6 °F 9.0 °F 84% 30.34 in 10.0 mi West 8.1 mph - N/A   Clear
11:53 PM 10.9 °F 1.4 °F 8.1 °F 88% 30.35 in 10.0 mi West 5.8 mph - N/A   Clear